Location: Abraham Lincoln Continuation High School
(33.9711°N, 117.3662°W)
Time: 04:14:41
(UTC+00:00)

Milstar 3 Cent rocket - Pass Details

Date: 21 September 2020
Orbit: 707 x 5145 km, 28.3° (Epoch: 25 October)

Event Time Altitude Azimuth Distance (km) Brightness Sun altitude
Rises 04:37:52 0° 257° (WSW) 3,916 6.3 -34.7°
Reaches altitude 10° 04:41:05 10° 251° (WSW) 2,598 5.1 -35.3°
Enters shadow 04:43:06 20° 243° (WSW) 1,800 4.1 -35.6°
